N1JFY Weather Reports


time (UTC)temp
F
wind
direction
speed
knots
gust
knots
rain 1hr
in
rain 24hr
in
rain mn
in
humidity
%
barometer
mb
20260902161515 67 0.0 0.0 0.00 0.00 0.00 63 1022.4
20260902160010 66 0.0 0.0 0.00 0.00 0.00 65 1022.5
20260902154506 66 0.0 0.0 0.00 0.00 0.00 68 1022.6
20260902153004 65 0.0 0.0 0.00 0.00 0.00 67 1022.7
20260902151601 64 0.0 0.0 0.00 0.00 0.00 70 1022.8
20260902150053 63 0.0 0.0 0.00 0.00 0.00 68 1022.8
20260902144600 63 0.0 0.0 0.00 0.00 0.00 74 1022.8
20260902143046 62 0.0 0.0 0.00 0.00 0.00 74 1022.8
20260902141541 61 0.0 0.0 0.00 0.00 0.00 78 1023.0
20260902140036 60 0.0 0.0 0.00 0.00 0.00 79 1023.0
20260902134535 60 0.0 0.0 0.00 0.00 0.00 84 1023.0
20260902133027 58 0.0 0.0 0.00 0.00 0.00 86 1023.1
20260902131523 56 0.0 0.0 0.00 0.00 0.00 90 1023.2
20260902130018 54 0.0 0.0 0.00 0.00 0.00 94 1023.3
20260902124514 53 0.0 0.0 0.00 0.00 0.00 94 1023.1
20260902123021 53 0.0 0.0 0.00 0.00 0.00 95 1023.0
20260902121505 52 0.0 0.0 0.00 0.00 0.00 96 1023.1
20260902114557 51 0.0 0.0 0.00 0.00 0.00 96 1023.2
20260902113055 50 0.0 0.0 0.00 0.00 0.00 96 1023.2
20260902111549 50 0.0 0.0 0.00 0.00 0.00 97 1023.3
20260902110043 50 0.0 0.0 0.00 0.00 0.00 97 1023.3
20260902104541 48 0.0 0.0 0.00 0.00 0.00 98 1023.2
20260902103035 46 0.0 0.0 0.00 0.00 0.00 96 1023.1
20260902101536 45 0.0 0.0 0.00 0.00 0.00 96 1023.2
20260902100026 45 0.0 0.0 0.00 0.00 0.00 96 1023.1
20260902094521 45 0.0 0.0 0.00 0.00 0.00 96 1023.0
20260902093019 44 0.0 0.0 0.00 0.00 0.00 95 1022.9
20260902091513 44 0.0 0.0 0.00 0.00 0.00 95 1022.8
20260902090008 45 0.0 0.0 0.00 0.00 0.00 95 1022.6
20260902084503 45 0.0 0.0 0.00 0.00 0.00 95 1022.5
20260902083100 45 0.0 0.0 0.00 0.00 0.00 95 1022.5
20260902081555 46 0.0 0.0 0.00 0.00 0.00 95 1022.5
20260902080109 46 0.0 0.0 0.00 0.00 0.00 95 1022.5
20260902074546 46 0.0 0.0 0.00 0.00 0.00 94 1022.4
20260902073042 47 0.0 0.0 0.00 0.00 0.00 94 1022.2
20260902071537 47 0.0 0.0 0.00 0.00 0.00 94 1022.0
20260902070033 47 0.0 0.0 0.00 0.00 0.00 94 1021.9
20260902064528 47 0.0 0.0 0.00 0.00 0.00 94 1021.9
20260902063024 47 0.0 0.0 0.00 0.00 0.00 94 1021.8
20260902061538 48 0.0 0.0 0.00 0.00 0.00 94 1021.7
20260902060014 49 0.0 0.0 0.00 0.00 0.00 94 1021.6
20260902054509 49 0.0 0.0 0.00 0.00 0.00 94 1021.6
20260902053007 49 0.0 0.0 0.00 0.00 0.00 94 1021.4
20260902051501 49 0.0 0.0 0.00 0.00 0.00 92 1021.3
20260902050057 50 0.0 0.0 0.00 0.00 0.00 93 1021.2
20260902044552 50 0.0 0.0 0.00 0.00 0.00 93 1021.1
20260902043047 50 0.0 0.0 0.00 0.00 0.00 92 1021.0
20260902041543 50 0.0 0.0 0.00 0.00 0.00 92 1020.8
20260902040039 50 0.0 0.0 0.00 0.00 0.00 91 1020.6
20260902034540 51 0.0 0.0 0.00 0.00 0.00 91 1020.5
20260902033045 51 0.0 0.0 0.00 0.00 0.00 90 1020.5
20260902031525 52 0.0 0.0 0.00 0.00 0.00 89 1020.4
20260902030023 52 0.0 0.0 0.00 0.00 0.00 89 1020.3
20260902024518 52 0.0 0.0 0.00 0.00 0.00 90 1020.3
20260902023013 51 0.0 0.0 0.00 0.00 0.00 91 1020.0
20260902021522 51 0.0 0.0 0.00 0.00 0.00 91 1019.9
20260902020003 51 0.0 0.0 0.00 0.00 0.00 91 1019.8
20260902014559 51 0.0 0.0 0.00 0.00 0.00 90 1019.7
20260902013103 52 0.0 0.0 0.00 0.00 0.00 90 1019.6
20260902011550 52 0.0 0.0 0.00 0.00 0.00 89 1019.5
20260902010046 53 0.0 0.0 0.00 0.00 0.00 89 1019.4
20260902004541 53 0.0 0.0 0.00 0.00 0.00 89 1019.4
20260902003037 53 0.0 0.0 0.00 0.00 0.00 88 1019.4
20260902001534 54 0.0 0.0 0.00 0.00 0.00 88 1019.2
20260902000028 55 0.0 0.0 0.00 0.00 0.00 88 1019.1
20260901234523 55 0.0 0.0 0.00 0.00 0.00 87 1018.9
20260901233028 56 0.0 0.0 0.00 0.00 0.00 85 1018.9
20260901231514 58 0.0 0.0 0.00 0.00 0.00 83 1018.7
20260901230011 60 0.0 0.0 0.00 0.00 0.00 79 1018.6
20260901224521 62 0.0 0.0 0.00 0.00 0.00 73 1018.5
20260901223002 66 0.0 0.0 0.00 0.00 0.00 63 1018.3
20260901221558 67 0.0 0.0 0.00 0.00 0.00 61 1018.2
20260901220058 68 0.0 0.0 0.00 0.00 0.00 56 1018.0
20260901214552 70 0.0 0.0 0.00 0.00 0.00 51 1017.9
20260901213045 71 0.0 0.0 0.00 0.00 0.00 48 1017.8
20260901211540 71 0.0 0.0 0.00 0.00 0.00 54 1017.8
20260901210035 70 0.0 0.0 0.00 0.00 0.00 48 1017.8
20260901204531 70 0.0 0.0 0.00 0.00 0.00 49 1017.7
20260901203026 71 0.0 0.0 0.00 0.00 0.00 48 1017.7
20260901201522 70 0.0 0.0 0.00 0.00 0.00 51 1017.8
20260901200022 70 0.0 0.0 0.00 0.00 0.00 50 1017.9
20260901194515 69 0.0 0.0 0.00 0.00 0.00 54 1017.9
20260901193009 69 0.0 0.0 0.00 0.00 0.00 56 1017.8
20260901191505 68 0.0 0.0 0.00 0.00 0.00 55 1017.8
20260901190113 69 0.0 0.0 0.00 0.00 0.00 53 1017.9
20260901184556 70 0.0 0.0 0.00 0.00 0.00 49 1017.9
20260901183053 71 0.0 0.0 0.00 0.00 0.00 48 1017.7
20260901181551 68 0.0 0.0 0.00 0.00 0.00 54 1017.8
20260901180043 68 0.0 0.0 0.00 0.00 0.00 53 1017.8
20260901174541 68 0.0 0.0 0.00 0.00 0.00 56 1017.8
20260901173036 67 0.0 0.0 0.00 0.00 0.00 54 1017.8
20260901171531 67 0.0 0.0 0.00 0.00 0.00 57 1017.8
20260901170025 68 0.0 0.0 0.00 0.00 0.00 55 1017.8
20260901164521 69 0.0 0.0 0.00 0.00 0.00 54 1017.9
20260901163017 68 0.0 0.0 0.00 0.00 0.00 57 1017.9